Weather History for KCVG - October, 2013

Change the Weather History Date:

Wednesday, October 2, 2013

  Actual Average Record
Temperature  
Mean Temperature 69 °F 61 °F  
Max Temperature 78 °F 71 °F 90 °F (1953)
Min Temperature 60 °F 50 °F 32 °F (1966)
Degree Days  
Heating Degree Days 0 6  
Month to date heating degree days 0 12  
Since 1 July heating degree days 30 70  
Cooling Degree Days 4 2  
Month to date cooling degree days 5 4  
Year to date cooling degree days 1125 1109  
Growing Degree Days 18 (Base 50)    
Moisture  
Dew Point 65 °F    
Average Humidity 87    
Maximum Humidity 100    
Minimum Humidity 74    
Precipitation  
Precipitation T in 0.10 in 1.56 in (1883)
Month to date precipitation T 0.19  
Year to date precipitation 36.70 32.61  
Snow  
Snow 0.00 in 0.00 in 0.00 in ()
Month to date snowfall 0.0 0.0  
Since 1 July snowfall 0.0 0.0  
Since 1 September snowfall 0.0 0.0  
Snow Depth 0.00 in    
Sea Level Pressure  
Sea Level Pressure 30.09 in    
Wind  
Wind Speed 3 mph (SSW)    
Max Wind Speed 9 mph    
Max Gust Speed 16 mph    
Visibility 4 miles    
Events Fog    
T = Trace of Precipitation, MM = Missing Value Source: NWS Daily Summary

Daily Weather History Graph

Daily Weather History Graph

Search for Another Location

Airport or City:

Trip Planner

Search our weather history database for the weather conditions in past years. The results will help you decide how hot, cold, wet, or windy it might be!

Date:

Astronomy

Oct. 02, 2013 Rise Set
Actual Time 7:35 AM EDT 7:19 PM EDT
Civil Twilight 7:09 AM EDT 7:45 PM EDT
Nautical Twilight 6:38 AM EDT 8:16 PM EDT
Astronomical Twilight 6:07 AM EDT 8:47 PM EDT
Moon 5:08 AM EDT (10/2) 5:54 PM EDT (10/2)
Length of Visible Light 12h 36m
Length of Day
11h 43m
Waning Crescent, 6% of the Moon is Illuminated
Oct 2
Waning Crescent
Oct 4
New
Oct 11
First Quarter
Oct 18
Full
Oct 26
Last Quarter

Hourly Weather History & Observations

Time (EDT) Temp. Dew Point Humidity Pressure Visibility Wind Dir Wind Speed Gust Speed Precip Events Conditions
12:52 AM 61.0 °F 59.0 °F 93% 30.05 in 7.0 mi SSW 5.8 mph - N/A   Clear
1:52 AM 63.0 °F 61.0 °F 93% 30.06 in 7.0 mi SSW 5.8 mph - N/A   Clear
2:52 AM 63.0 °F 61.0 °F 93% 30.06 in 6.0 mi SSW 5.8 mph - N/A   Partly Cloudy
3:52 AM 63.0 °F 61.0 °F 93% 30.05 in 6.0 mi SSW 5.8 mph - N/A   Partly Cloudy
4:52 AM 63.0 °F 61.0 °F 93% 30.05 in 6.0 mi SSW 4.6 mph - N/A   Clear
5:52 AM 63.0 °F 62.1 °F 97% 30.06 in 6.0 mi Calm Calm - N/A   Partly Cloudy
6:52 AM 62.1 °F 62.1 °F 100% 30.08 in 5.0 mi Calm Calm - N/A Fog Patches of Fog
6:57 AM 60.8 °F 60.8 °F 100% 30.10 in 3.0 mi Calm Calm - N/A Fog Patches of Fog
7:11 AM 60.8 °F 60.8 °F 100% 30.11 in 4.0 mi SSW 3.5 mph - N/A Fog Patches of Fog
7:29 AM 60.8 °F 60.8 °F 100% 30.11 in 2.0 mi South 3.5 mph - N/A   Overcast
7:52 AM 62.1 °F 61.0 °F 96% 30.10 in 2.0 mi SSW 3.5 mph - N/A   Overcast
8:06 AM 62.6 °F 62.6 °F 100% 30.12 in 1.0 mi South 3.5 mph - N/A   Overcast
8:12 AM 62.6 °F 62.6 °F 100% 30.12 in 0.5 mi Calm Calm - N/A   Overcast
8:21 AM 64.4 °F 62.6 °F 94% 30.12 in 0.1 mi South 3.5 mph - N/A   Overcast
8:52 AM 64.9 °F 64.9 °F 100% 30.12 in 0.1 mi Calm Calm - N/A Fog Fog
9:37 AM 66.2 °F 66.2 °F 100% 30.14 in 1.0 mi Calm Calm - N/A   Overcast
9:52 AM 66.0 °F 66.0 °F 100% 30.12 in 0.2 mi South 3.5 mph - N/A   Overcast
10:01 AM 66.2 °F 66.2 °F 100% 30.14 in 0.2 mi South 4.6 mph - N/A   Overcast
10:22 AM 66.2 °F 66.2 °F 100% 30.14 in 2.0 mi SSW 4.6 mph - N/A   Overcast
10:52 AM 68.0 °F 66.9 °F 96% 30.12 in 2.0 mi SSW 3.5 mph - N/A   Overcast
11:52 AM 70.0 °F 68.0 °F 93% 30.12 in 2.0 mi Calm Calm - N/A   Overcast
12:43 PM 71.6 °F 68.0 °F 88% 30.13 in 2.0 mi WSW 3.5 mph - N/A   Overcast
12:52 PM 72.0 °F 68.0 °F 87% 30.11 in 2.0 mi Calm Calm - N/A   Overcast
1:20 PM 71.6 °F 68.0 °F 88% 30.13 in 3.0 mi SSW 6.9 mph - N/A   Overcast
1:52 PM 73.9 °F 69.1 °F 85% 30.09 in 3.0 mi Variable 4.6 mph - N/A   Haze
2:52 PM 73.9 °F 69.1 °F 85% 30.07 in 6.0 mi SSW 3.5 mph - N/A   Haze
3:13 PM 77.0 °F 69.8 °F 78% 30.09 in 7.0 mi SW 5.8 mph - N/A   Mostly Cloudy
3:29 PM 77.0 °F 69.8 °F 78% 30.08 in 7.0 mi Variable 4.6 mph - N/A   Mostly Cloudy
3:52 PM 77.0 °F 68.0 °F 74% 30.06 in 8.0 mi SSW 3.5 mph - N/A   Mostly Cloudy
4:08 PM 75.2 °F 68.0 °F 78% 30.08 in 9.0 mi SW 5.8 mph - N/A   Mostly Cloudy
4:29 PM 77.0 °F 69.8 °F 78% 30.08 in 8.0 mi SW 3.5 mph - N/A   Mostly Cloudy
4:52 PM 77.0 °F 69.1 °F 76% 30.05 in 8.0 mi Variable 3.5 mph - N/A   Mostly Cloudy
5:52 PM 75.0 °F 69.1 °F 82% 30.04 in 8.0 mi North 5.8 mph - N/A   Mostly Cloudy
6:52 PM 72.0 °F 66.9 °F 84% 30.06 in 7.0 mi WNW 4.6 mph - N/A   Overcast
7:52 PM 71.1 °F 66.9 °F 87% 30.06 in 8.0 mi Calm Calm - N/A   Overcast
8:52 PM 69.1 °F 66.9 °F 93% 30.06 in 6.0 mi SSW 3.5 mph - N/A   Mostly Cloudy
9:52 PM 66.9 °F 66.9 °F 100% 30.06 in 5.0 mi Calm Calm - N/A   Overcast
10:52 PM 69.1 °F 68.0 °F 96% 30.06 in 5.0 mi SSW 4.6 mph - N/A   Overcast
11:52 PM 68.0 °F 68.0 °F 100% 30.07 in 5.0 mi SSW 4.6 mph - N/A   Overcast